Location: Ao Por, Phuket, Thailand
(8.0591°N, 98.4362°E)
Time: 23:48:55
(UTC+07:00)

N. Korean satellite - Visible Passes

Search period start: 25 September 2021 00:00
Search period end: 05 October 2021 00:00
Orbit: 449 x 498 km, 97.3° (Epoch: 24 September)

Date Brightness Start Highest point End Pass type
(mag) Time Alt. Az. Time Alt. Az. Time Alt. Az.
26 Sep 6.5 05:31:13 10° N 05:34:48 69° W 05:38:25 10° SSW visible
27 Sep 8.2 05:03:42 10° NNE 05:07:04 37° E 05:10:28 10° S visible
28 Sep 9.9 04:37:27 10° ENE 04:39:19 14° E 04:41:12 10° SE visible
29 Sep 6.9 05:41:06 10° N 05:44:34 45° WNW 05:48:04 10° SSW visible
30 Sep 7.3 05:13:15 10° NNE 05:16:49 56° E 05:20:24 10° S visible
01 Oct 9.4 04:46:22 10° NE 04:49:02 19° E 04:51:42 10° SSE visible
02 Oct 7.4 05:51:00 10° NNW 05:54:14 31° WNW 05:57:30 10° SW visible
03 Oct 6.6 05:22:48 10° NNE 05:26:27 85° ESE 05:30:07 10° S visible
04 Oct 8.8 04:55:30 10° NE 04:58:39 27° E 05:01:47 10° SSE visible
